Weather History for Rhinelander, WI

Change the Weather History Date:

Wednesday, February 19, 2014

  Actual Average Record
Temperature  
Mean Temperature 26 °F 18 °F  
Max Temperature 39 °F 28 °F 57 °F (1930)
Min Temperature 13 °F 8 °F -32 °F (1942)
Degree Days  
Heating Degree Days 39 47  
Month to date heating degree days 1149 949  
Since 1 July heating degree days 7087 6210  
Cooling Degree Days 0 0  
Month to date cooling degree days 0 0  
Year to date cooling degree days 0 0  
Moisture  
Dew Point 17 °F    
Average Humidity 67    
Maximum Humidity 96    
Minimum Humidity 37    
Precipitation  
Precipitation 0.00 in 0.03 in 0.43 in (1971)
Month to date precipitation 0.55 0.59  
Year to date precipitation 1.93 1.70  
Snow  
Snow 0.00 in - 4.00 in (1933)
Month to date snowfall 9.8  
Since 1 July snowfall 64.6  
Snow Depth 24.00 in    
Sea Level Pressure  
Sea Level Pressure 29.79 in    
Wind  
Wind Speed 9 mph (WSW)    
Max Wind Speed 21 mph    
Max Gust Speed 27 mph    
Visibility 10 miles    
Events      
T = Trace of Precipitation, MM = Missing Value Source: NWS Daily Summary

Daily Weather History Graph

Daily Weather History Graph

Search for Another Location

Airport:

Trip Planner

Search our weather history database for the weather conditions in past years. The results will help you decide how hot, cold, wet, or windy it might be!

Date:

Astronomy

Feb. 19, 2014 Rise Set
Actual Time 6:53 AM CST 5:30 PM CST
Civil Twilight 6:23 AM CST 6:00 PM CST
Nautical Twilight 5:48 AM CST 6:35 PM CST
Astronomical Twilight 5:14 AM CST 7:09 PM CST
Moon 10:41 PM CST (2/19) 8:44 AM CST (2/19)
Length of Visible Light 11h 37m
Length of Day
10h 37m
Waning Gibbous, 79% of the Moon is Illuminated
Feb 19
Waning Gibbous
Feb 22
Last Quarter
Mar 1
New
Mar 8
First Quarter
Mar 16
Full

Hourly Weather History & Observations

Time (CST) Temp. Windchill Dew Point Humidity Pressure Visibility Wind Dir Wind Speed Gust Speed Precip Events Conditions
12:53 AM 21.0 °F 11.4 °F 17.1 °F 85% 29.67 in 10.0 mi West 8.1 mph - N/A   Clear
1:53 AM 16.0 °F 6.3 °F 14.0 °F 92% 29.68 in 8.0 mi West 6.9 mph - N/A   Clear
2:53 AM 21.9 °F 11.7 °F 18.0 °F 85% 29.68 in 10.0 mi West 9.2 mph - N/A   Clear
3:53 AM 19.0 °F 6.8 °F 15.1 °F 85% 29.70 in 10.0 mi West 11.5 mph - N/A   Clear
4:53 AM 15.1 °F 3.3 °F 12.9 °F 91% 29.72 in 10.0 mi West 9.2 mph - N/A   Clear
5:53 AM 14.0 °F 1.2 °F 12.0 °F 92% 29.73 in 10.0 mi West 10.4 mph - N/A   Clear
6:53 AM 15.1 °F 2.5 °F 12.0 °F 88% 29.76 in 10.0 mi West 10.4 mph - N/A   Clear
7:53 AM 17.1 °F 6.6 °F 14.0 °F 88% 29.77 in 10.0 mi WSW 8.1 mph - N/A   Clear
8:53 AM 23.0 °F 13.9 °F 17.1 °F 78% 29.80 in 10.0 mi WSW 8.1 mph - N/A   Clear
9:53 AM 27.0 °F 17.3 °F 19.0 °F 72% 29.80 in 10.0 mi West 10.4 mph - N/A   Clear
10:53 AM 32.0 °F 23.6 °F 21.0 °F 64% 29.81 in 10.0 mi West 10.4 mph - N/A   Clear
11:53 AM 36.0 °F 28.0 °F 18.0 °F 48% 29.80 in 10.0 mi West 11.5 mph - N/A   Clear
12:53 PM 37.0 °F 27.4 °F 18.0 °F 46% 29.79 in 10.0 mi West 17.3 mph - N/A   Clear
1:53 PM 37.9 °F 28.9 °F 17.1 °F 43% 29.81 in 10.0 mi WSW 16.1 mph 21.9 mph N/A   Clear
2:53 PM 39.0 °F 29.9 °F 16.0 °F 39% 29.81 in 10.0 mi West 17.3 mph 26.5 mph N/A   Clear
3:53 PM 37.9 °F 31.5 °F 17.1 °F 43% 29.82 in 10.0 mi WSW 9.2 mph - N/A   Clear
4:53 PM 36.0 °F 29.6 °F 16.0 °F 44% 29.84 in 10.0 mi WSW 8.1 mph - N/A   Clear
5:53 PM 35.1 °F 27.9 °F 19.0 °F 52% 29.87 in 10.0 mi SSW 9.2 mph - N/A   Clear
6:53 PM 32.0 °F 26.4 °F 19.0 °F 59% 29.88 in 10.0 mi SSW 5.8 mph - N/A   Clear
7:53 PM 28.9 °F 25.2 °F 19.9 °F 69% 29.87 in 10.0 mi South 3.5 mph - N/A   Clear
8:53 PM 28.0 °F - 19.9 °F 72% 29.86 in 10.0 mi Calm Calm - N/A   Partly Cloudy
9:53 PM 30.9 °F 26.2 °F 23.0 °F 72% 29.87 in 10.0 mi SSW 4.6 mph - N/A   Mostly Cloudy
10:53 PM 28.9 °F 23.9 °F 21.9 °F 75% 29.85 in 10.0 mi SE 4.6 mph - N/A   Overcast
11:53 PM 30.9 °F 27.5 °F 21.9 °F 69% 29.85 in 10.0 mi SE 3.5 mph - N/A   Overcast